Probability
3 8 11 10 8 7 5 4 1 1 2 3 3 3 2 1 0 0 1 1 2 2 1 2 2 1 1 1 1 1 1 0 0 1 0 0 0 0 0 0 0 0 0
4 8 12 12 11 10 7 4 3 2 3 4 4 5 4 2 1 1 1 1 1 1 1 2 3 2 2 2 1 0 0 0 0 1 0 0 0 0 0 0 0 0 0
5 8 11 12 13 12 9 7 5 4 4 5 7 8 7 5 3 3 2 1 0 0 1 3 3 3 3 2 1 0 0 0 0 0 0 0 0 0 0 0 0 0 0
7 7 8 10 12 10 8 7 6 6 6 7 9 10 10 8 6 5 3 1 1 1 2 3 3 3 3 3 2 2 1 0 0 0 0 0 0 0 0 0 0 0 0
8 7 7 8 9 9 7 6 6 6 7 8 10 11 11 10 7 5 4 3 2 3 3 3 3 3 3 3 3 2 1 0 0 0 0 0 0 0 0 0 0 0 0
8 7 6 7 8 9 9 9 9 8 7 8 10 11 11 9 7 4 3 3 4 4 4 4 3 3 4 4 2 1 1 0 0 0 0 0 0 0 0 0 0 0 0
6 6 7 7 8 9 12 15 16 12 9 9 10 10 10 8 5 3 3 4 5 6 6 5 5 5 4 2 1 0 0 0 0 0 0 0 0 0 0 0 0 0 0
5 5 7 9 10 10 14 19 21 19 14 11 10 9 8 6 4 3 4 5 5 6 6 6 6 6 4 2 1 1 1 0 0 0 0 0 0 0 0 0 0 0 0
4 4 6 11 13 12 14 19 22 21 18 14 11 8 6 4 3 3 4 4 4 4 5 4 5 5 4 3 2 2 1 0 0 0 0 0 0 0 0 0 0 0 0
6 6 7 11 15 15 15 18 20 19 18 15 12 8 5 4 4 4 5 5 4 3 3 3 3 3 3 2 2 1 1 0 0 0 0 0 0 0 0 0 0 0 0
7 7 8 10 14 16 17 19 20 20 19 16 13 11 9 6 4 5 5 4 3 1 1 2 2 1 1 1 1 0 0 0 0 0 0 0 0 0 0 0 0 0 0
8 7 8 11 14 18 23 26 27 26 22 17 15 15 13 8 4 4 3 2 1 0 1 2 2 1 0 0 0 0 0 0 0 0 0 0 0 0 0 0 0 0 0
9 9 12 16 18 23 28 33 34 32 27 21 18 17 13 8 4 3 2 1 0 0 1 3 2 1 0 0 0 0 0 0 0 0 0 0 0 0 0 0 0 0 0
12 14 18 21 23 27 32 35 35 33 31 27 22 19 15 10 7 6 5 3 1 1 2 3 2 1 0 0 0 0 0 0 0 0 0 0 0 0 0 0 0 0 0
17 19 20 22 27 31 33 34 33 32 32 29 25 23 20 16 14 12 9 6 4 3 3 3 2 1 0 0 0 0 0 0 0 0 0 0 0 0 0 0 1 1 1
21 21 20 21 26 30 33 34 33 31 30 27 25 24 23 23 22 18 13 10 8 6 5 4 2 1 0 0 0 0 0 0 0 0 0 0 1 1 1 1 1 1 2
23 22 20 20 22 26 31 34 34 32 31 28 25 23 24 26 25 20 16 14 13 13 11 8 5 3 2 1 0 0 0 0 0 0 0 1 2 2 2 2 1 1 1
28 26 25 23 23 25 29 32 34 33 31 28 27 24 24 26 25 22 19 18 19 20 18 13 8 6 4 1 0 0 0 0 0 0 1 3 4 3 3 2 1 0 0
33 32 32 31 28 27 29 33 35 33 30 29 30 27 25 26 27 25 22 22 23 25 22 16 11 8 6 3 1 0 0 0 0 0 1 4 5 4 3 2 1 1 0
35 37 38 37 35 32 32 35 37 35 32 31 31 29 28 27 27 26 24 25 27 27 23 16 11 9 8 6 3 1 1 1 0 0 1 4 5 4 2 2 3 3 2
34 36 39 40 38 35 34 36 38 37 34 31 30 29 29 29 28 27 27 29 28 25 21 16 12 10 9 8 5 2 2 2 1 1 2 4 4 2 1 1 3 4 3
34 35 37 39 38 37 36 36 37 36 33 29 27 27 28 29 30 30 30 31 28 25 22 19 16 13 11 9 7 3 2 2 3 3 4 5 3 1 0 0 1 2 2
34 35 37 38 37 38 39 37 35 34 32 28 26 26 26 26 29 31 32 31 28 26 24 22 19 15 13 11 9 5 2 1 3 4 5 5 3 1 0 0 0 1 2
33 34 38 39 38 39 40 38 35 34 34 30 27 25 23 23 25 27 28 28 26 25 23 21 19 17 14 13 11 8 4 2 2 3 4 4 3 1 1 1 1 1 2
32 34 37 38 38 38 38 36 35 35 34 31 28 25 23 20 20 21 20 18 18 18 17 17 17 16 13 10 8 7 5 2 2 2 3 4 4 3 3 3 3 3 4
32 33 35 36 37 37 36 35 34 34 32 30 27 25 23 20 17 17 14 11 11 11 10 12 15 14 10 6 4 3 3 1 1 2 3 4 4 4 4 5 5 5 5
Wind_Speed
8 9 9 9 7 6 6 5 5 3 3 2 2 2 2 1 2 2 3 3 3 4 4 4 3 3 3 3 3 3 4 2 3 3 2 2 1 1 0 0 1 0 1
7 8 8 8 8 7 6 5 5 4 3 2 2 2 2 2 2 2 3 3 3 3 4 4 3 3 3 3 3 3 3 2 2 3 2 1 2 2 1 1 1 0 1
12 10 10 8 9 8 7 6 5 4 3 3 3 3 3 3 2 2 2 2 2 3 3 3 3 3 3 2 2 3 4 2 1 2 3 3 2 1 2 1 1 1 1
11 11 11 10 10 9 7 6 5 5 4 4 4 4 4 3 2 2 2 2 2 2 3 3 3 2 2 2 2 2 3 3 2 0 1 2 4 3 0 2 1 1 1
13 13 12 12 10 9 8 6 6 5 4 4 5 5 4 3 2 2 3 2 2 2 3 3 3 2 1 2 2 2 2 2 2 1 1 1 1 2 3 1 1 2 1
14 13 11 10 9 9 8 7 7 5 5 4 4 5 5 5 4 3 3 2 1 1 2 3 2 2 2 2 2 2 2 1 2 1 1 2 2 2 2 2 1 0 1
14 13 12 11 10 10 9 8 8 6 5 5 5 5 5 5 5 4 4 3 2 1 1 2 2 1 2 2 2 2 1 1 2 1 1 1 1 2 2 3 2 1 0
13 14 14 13 12 12 11 9 9 7 6 6 5 4 5 4 3 4 3 3 2 2 2 2 2 2 2 2 2 2 1 1 1 1 1 1 1 1 3 3 3 2 0
14 13 13 12 12 12 11 11 10 7 7 6 6 5 5 4 4 4 3 2 2 2 2 3 3 2 2 2 2 2 1 1 1 0 1 1 0 1 1 3 4 4 2
12 12 12 12 12 11 10 10 10 9 7 7 6 6 5 5 5 4 4 3 3 3 3 3 3 3 3 3 2 2 2 2 1 1 2 1 0 0 1 2 2 2 4
13 12 12 12 11 10 10 10 9 8 7 7 6 5 5 5 5 4 4 4 4 4 4 4 3 3 3 2 3 2 2 2 2 2 2 1 1 1 1 1 2 2 3
11 11 11 10 10 11 10 10 9 9 8 7 7 6 5 5 5 5 4 4 4 4 4 4 4 3 3 2 3 2 2 2 2 1 2 1 1 1 1 1 2 2 2
9 9 9 9 10 10 10 10 10 9 8 7 7 6 6 6 6 5 5 4 5 4 4 4 4 3 3 2 2 2 2 2 1 1 1 0 1 1 1 1 2 2 2
8 9 9 9 9 9 10 10 9 9 9 8 8 7 7 7 6 6 5 5 5 5 4 4 4 3 3 3 2 3 2 2 2 1 1 1 2 2 1 2 1 2 3
8 9 9 8 8 8 8 9 9 8 9 9 8 8 7 7 6 6 6 5 5 6 5 4 3 3 3 3 3 3 3 3 2 2 2 2 3 3 2 2 2 3 3
8 9 9 9 9 9 9 9 8 9 9 9 9 8 8 7 7 6 6 6 5 5 5 4 4 3 2 4 5 4 3 3 2 1 1 2 2 3 3 4 4 4 5
8 9 10 9 9 9 9 10 9 8 8 8 8 8 8 8 7 7 6 6 5 5 5 4 4 3 3 5 5 6 4 3 2 2 1 1 2 2 2 3 4 3 3
8 8 8 8 7 7 7 7 7 8 8 7 7 7 8 8 8 8 7 7 5 5 5 4 4 3 3 5 5 6 4 3 2 2 2 2 1 1 2 3 3 2 1
6 6 6 7 6 6 7 7 7 7 8 8 8 8 8 8 8 8 7 6 6 5 5 5 5 4 3 5 6 5 3 2 1 1 1 2 1 1 4 4 3 2 1
4 4 5 5 6 5 7 7 7 7 8 8 8 8 8 9 9 8 7 5 5 5 5 4 4 5 4 4 6 6 3 2 1 1 0 1 2 2 4 3 3 2 1
5 6 6 5 5 5 7 8 7 7 7 6 7 7 7 7 7 7 6 6 6 5 4 4 3 3 3 4 6 6 3 3 2 1 1 1 2 3 3 3 3 3 2
5 6 6 5 4 5 6 7 7 6 6 6 6 6 6 6 6 6 6 6 6 6 5 4 3 2 2 3 5 7 6 5 4 3 2 1 2 2 2 2 2 3 2
5 5 6 5 4 5 6 6 5 6 6 6 6 6 6 5 6 6 6 6 5 5 5 4 4 3 2 3 5 7 7 6 3 2 3 3 2 1 1 1 2 2 2
4 4 5 5 4 4 4 5 5 6 7 7 6 6 6 5 4 4 4 5 5 5 5 5 4 3 2 2 2 3 3 3 2 2 2 2 1 1 1 0 1 1 2
3 4 5 4 4 4 4 4 6 7 6 6 5 5 5 6 5 3 3 4 4 6 6 5 5 5 5 6 7 6 4 4 4 3 1 1 0 0 0 0 0 1 1
3 3 4 4 3 3 4 4 6 7 7 5 5 4 4 4 4 4 2 2 1 3 5 6 6 4 6 7 8 8 7 7 7 4 2 2 2 3 2 2 1 1 2
Wind_Direction
169 161 157 152 145 141 137 139 136 138 125 106 102 95 87 83 81 92 99 99 102 102 102 108 109 114 121 130 130 125 116 116 120 103 70 35 44 78 127 132 119 122 175
165 162 156 153 152 151 147 145 148 152 152 143 139 130 129 120 112 87 79 83 96 101 109 109 119 120 119 118 126 125 119 140 149 130 111 49 10 6 22 34 75 39 43
171 168 162 160 158 159 160 157 158 157 160 146 114 98 82 71 69 69 76 71 91 97 104 112 117 113 124 138 142 141 138 148 176 147 141 144 188 317 351 359 42 29 62
167 168 165 165 168 169 166 160 162 161 159 143 132 129 129 127 139 132 114 86 87 101 106 111 111 108 122 137 160 150 150 146 164 193 154 160 156 148 159 338 350 9 44
173 172 170 170 170 169 166 163 159 160 158 146 144 138 130 136 127 115 108 101 86 91 106 111 109 115 128 135 125 121 129 145 156 166 150 110 110 134 150 197 317 3 1
176 174 170 165 167 168 164 162 159 162 158 148 142 143 141 139 129 125 127 126 106 95 102 116 121 128 133 128 132 124 121 130 140 152 148 151 156 170 155 168 182 241 327
175 173 171 170 171 170 169 167 164 166 166 157 151 152 153 150 148 149 152 149 139 128 136 128 130 131 133 135 130 118 126 141 147 159 173 168 180 167 150 142 148 145 316
178 176 177 177 176 174 171 169 168 168 169 166 164 157 153 148 147 150 152 157 159 165 160 140 134 128 123 120 118 116 138 128 144 158 161 155 186 156 155 151 144 126 19
180 178 177 177 176 174 174 172 170 169 172 171 162 154 154 151 152 152 148 154 159 157 149 134 122 111 103 103 108 100 95 91 86 89 100 116 193 150 158 153 155 150 156
176 177 178 178 178 175 172 170 171 173 171 167 167 164 162 161 158 151 152 153 150 146 135 128 121 111 105 103 96 89 75 76 49 62 68 58 9 94 98 137 145 144 149
178 178 180 179 173 168 168 170 173 170 169 170 165 159 158 156 150 149 155 154 145 142 140 141 131 123 119 114 107 101 93 87 56 43 67 45 43 78 80 89 96 111 128
173 172 168 166 166 167 169 170 172 173 175 170 162 161 158 154 155 157 158 156 147 144 143 140 134 136 131 122 122 124 109 105 89 53 60 29 63 71 93 106 107 121 132
160 160 155 160 168 171 171 171 172 174 172 164 161 161 161 160 164 166 158 151 147 141 137 132 135 139 136 131 131 130 122 118 120 108 102 77 96 78 87 110 119 126 125
153 154 157 163 165 167 169 170 172 171 168 165 164 167 171 170 167 160 153 151 148 143 141 138 139 138 132 128 126 119 114 105 95 93 104 112 121 136 125 107 118 123 117
149 153 161 164 161 160 164 167 170 169 169 166 170 176 173 164 158 155 155 152 148 151 147 139 134 132 132 141 137 131 124 112 94 68 69 88 100 107 120 122 133 131 130
162 161 161 161 164 165 166 168 173 173 168 170 177 173 165 161 161 160 156 152 152 150 141 142 138 135 148 143 142 136 125 118 119 105 61 62 67 84 90 107 123 136 145
165 166 168 169 171 173 170 172 171 164 164 172 174 169 165 164 167 163 158 162 163 153 147 146 139 145 153 148 146 144 135 128 131 134 123 81 65 81 92 86 89 99 131
166 171 172 172 172 169 168 163 157 157 159 163 166 168 168 170 169 167 172 174 165 158 157 157 157 152 162 156 151 146 134 124 129 139 146 132 88 94 118 105 82 69 65
162 168 167 163 163 165 162 152 158 160 162 167 170 173 170 172 172 174 177 173 163 160 163 161 161 162 182 173 162 147 131 127 133 122 126 135 133 119 123 115 108 72 3
141 147 143 140 151 163 156 153 158 161 172 177 178 177 174 172 175 178 177 166 160 167 163 163 170 172 184 182 169 157 144 141 152 127 149 155 151 142 140 139 137 140 259
136 138 137 146 162 161 155 158 161 175 182 171 164 169 171 170 169 167 163 154 153 154 156 160 170 174 183 176 171 166 160 170 178 180 199 232 165 158 164 159 173 198 184
134 138 142 152 158 158 160 165 177 177 159 150 154 159 163 164 159 157 160 157 155 156 159 156 167 190 190 175 174 172 176 175 178 195 201 212 178 161 172 180 189 169 140
145 146 148 153 159 165 167 169 178 160 151 151 160 161 158 159 158 158 161 160 161 167 175 174 184 195 199 190 178 176 179 178 182 197 188 184 186 176 187 204 180 148 133
149 147 144 153 170 175 171 173 168 158 154 159 163 161 159 158 157 157 162 169 175 177 180 183 188 190 193 197 183 178 182 183 180 185 180 176 172 175 196 210 162 153 166
145 142 149 163 177 171 174 172 161 151 151 158 161 161 167 166 159 155 163 176 191 189 184 191 185 183 202 211 192 178 180 178 177 152 124 119 126 87 305 282 160 137 143
144 141 145 155 166 166 174 172 163 156 155 162 167 167 167 164 161 153 117 56 137 180 191 192 184 200 203 185 184 184 176 169 159 145 165 194 202 202 203 194 198 194 190